User: anonymous   Login
Location: Unspecified
(0.0000°N, 0.0000°E)
Time: 09:58:16
(UTC+00:00)
Language:

CLOUDSAT - Orbit

View from above orbital plane
View from above orbital plane
View from above satellite
View from above satellite

Ground track
Ground track

The orbit data is extracted from the following two-line orbital elements,

1 29107U 06016A   16345.17881850  .00000093  00000-0  30597-4 0  9999
2 29107  98.2189 285.8107 0000372  77.0777 283.0463 14.57127616564906
Epoch (UTC): 10 December 2016 04:17:29
Eccentricity: 0.0000372
inclination: 98.2189°
perigee height: 702 km
apogee height: 703 km
right ascension of ascending node: 285.8107°
argument of perigee: 77.0777°
revolutions per day: 14.57127616
mean anomaly at epoch: 283.0463°
orbit number at epoch: 56490

The dashed part of the orbit path shows where the satellite is in the earth's shadow,  

DLR